GFSGBSN_sfc_thetae_021.txt.gz
Theta_e
310 310 309 309 309 308 308 309 309 310 310 311 311 312 312 312 313 313 313 313 313 313 313 313 313 313 311 305 305 316 326 324 318 321 317 310 309 311 311 312 314 313 315 317 319 319 318
309 309 309 309 309 309 309 310 310 310 311 311 311 311 312 312 312 312 313 313 313 313 313 313 313 313 308 297 312 314 314 314 315 315 318 314 312 315 314 314 312 315 315 315 316 316 317
310 311 310 310 309 309 310 310 309 310 310 310 310 311 311 312 312 312 313 313 312 313 313 313 313 312 305 302 311 313 313 312 313 313 310 317 317 313 315 312 317 315 311 314 315 315 314
310 310 310 309 309 310 310 310 310 310 309 310 311 312 312 312 312 312 312 312 313 312 313 314 314 311 300 310 312 309 311 309 312 313 313 314 317 314 313 315 313 309 311 306 312 314 315
310 310 310 310 311 310 310 310 311 311 311 311 312 312 311 311 312 312 312 312 312 313 313 313 311 307 299 313 307 310 309 306 308 311 313 312 311 309 310 305 305 308 302 305 307 314 313
309 309 310 310 311 310 310 310 310 310 311 311 312 311 311 311 311 312 311 311 313 311 312 314 311 302 305 300 304 308 311 310 307 307 307 307 305 302 304 303 296 300 302 304 304 310 311
309 309 310 310 310 309 309 310 310 310 311 311 311 311 311 311 311 311 310 310 305 304 308 302 300 301 302 305 307 304 307 306 308 305 299 304 299 296 300 303 305 305 304 304 307 312 309
309 308 309 309 310 309 309 310 310 310 310 311 311 310 310 311 311 311 310 303 303 304 296 303 302 302 303 304 298 301 306 300 301 298 301 301 296 302 303 304 303 303 302 303 307 311 309
309 309 308 308 309 309 309 310 310 310 311 311 311 311 310 310 310 309 306 305 310 309 295 298 301 300 301 304 299 299 303 300 297 298 299 296 300 303 302 301 301 302 301 302 303 307 310
309 309 309 309 310 310 309 310 310 310 310 311 310 310 311 310 306 308 304 308 310 309 290 292 297 300 303 304 298 306 306 301 297 294 298 298 302 302 301 299 302 298 305 304 304 302 298
309 309 309 310 310 310 310 309 309 310 310 310 310 310 310 308 307 304 306 310 310 305 278 293 296 307 302 298 300 302 308 303 294 295 296 295 298 298 299 300 303 301 305 304 304 301 301
308 308 308 309 309 309 309 309 309 310 310 310 310 309 308 309 309 308 311 309 306 288 278 290 296 295 295 297 299 299 301 305 304 297 297 297 303 302 301 303 304 305 303 304 304 301 294
307 307 308 308 308 308 309 308 309 309 309 310 310 308 308 310 304 311 310 302 286 281 290 288 289 292 292 292 293 296 294 294 293 290 290 294 296 302 304 300 304 303 300 293 292 292 293
306 307 306 307 307 307 307 307 308 308 308 309 308 306 307 310 311 311 306 293 281 287 287 292 291 291 288 291 292 292 292 290 295 295 292 288 286 296 302 300 299 300 300 294 288 291 294
307 307 307 307 307 307 307 306 307 307 308 307 306 311 308 310 312 308 297 286 285 288 291 289 291 287 288 290 290 290 290 290 294 294 288 291 289 298 301 303 302 300 298 303 298 301 297
306 306 307 307 307 307 307 306 307 308 307 307 308 306 306 311 313 307 296 287 289 293 293 292 285 289 285 288 288 288 288 294 291 295 296 295 289 296 300 303 303 302 305 296 299 291 292
306 306 306 307 306 305 307 307 306 307 307 306 307 301 307 312 311 300 290 289 291 295 294 291 288 287 288 287 289 288 288 293 294 294 296 296 293 295 298 298 297 298 299 300 301 300 294
305 306 306 306 307 306 306 307 306 306 305 306 305 296 307 313 296 298 291 292 293 293 295 293 293 291 289 290 288 288 288 292 295 296 292 297 294 292 295 302 303 302 301 301 297 297 299
305 305 305 306 307 306 306 306 307 306 306 305 300 301 308 306 291 290 293 292 294 292 293 291 290 293 294 290 287 290 291 296 295 294 293 297 294 289 292 299 301 299 302 304 304 304 299
305 305 305 306 307 307 306 306 307 307 306 305 301 295 301 304 297 292 289 291 290 294 293 295 292 293 291 290 293 289 290 293 295 295 297 295 294 293 288 294 298 297 300 303 303 299 300
304 304 305 305 306 307 307 307 307 307 306 306 303 296 297 292 294 292 291 291 289 288 293 295 292 291 291 288 289 289 291 293 294 296 295 294 291 294 294 296 298 299 300 302 301 303 300
305 305 304 305 306 306 307 307 307 307 306 305 297 295 298 294 294 291 292 290 289 291 291 290 290 293 293 289 291 288 290 292 291 294 294 297 292 294 290 295 298 298 300 301 303 303 303
305 305 305 305 305 306 307 307 307 307 306 303 304 302 296 293 293 290 291 291 290 292 294 295 293 293 292 293 296 297 297 297 296 293 292 292 294 291 286 294 296 293 299 301 302 305 304
304 305 304 304 305 306 307 307 307 308 307 307 305 302 295 290 293 292 292 292 292 293 290 295 296 294 297 302 302 300 299 297 297 296 296 292 292 292 289 292 286 298 305 304 303 305 307
303 303 304 304 304 305 306 307 307 308 308 305 308 301 296 289 293 293 293 293 295 296 294 295 297 301 302 299 292 291 291 292 293 295 296 297 292 289 286 289 296 298 303 302 302 302 308
303 303 303 304 304 304 305 306 307 307 308 307 307 307 299 291 294 296 293 293 291 291 294 295 301 304 302 294 291 286 284 288 286 290 296 296 296 289 291 288 285 296 305 308 308 299 308
304 303 303 303 304 304 305 306 306 307 308 308 306 311 301 293 298 297 293 292 295 294 290 294 297 298 301 291 287 286 287 292 285 287 288 291 291 289 290 292 295 300 306 307 297 298 309
305 304 304 303 303 304 304 305 306 306 307 307 306 312 302 296 299 300 299 296 296 295 290 296 295 297 295 289 288 287 287 289 287 288 289 288 288 291 293 291 288 303 305 301 304 309 310
305 305 305 305 304 303 304 305 305 306 306 307 304 310 309 298 299 305 305 306 304 301 294 293 295 294 294 288 291 290 288 290 289 286 294 288 291 288 291 288 297 302 302 306 308 309 309

GFSGBSN_sfc_thetae_024.txt.gz
Theta_e
311 311 311 311 311 310 310 311 310 310 311 311 311 312 312 312 313 313 313 313 313 313 313 313 313 313 310 300 302 315 330 326 317 315 311 309 306 306 306 312 313 310 313 316 317 317 318
311 311 311 310 310 310 310 310 310 310 310 311 311 311 312 312 312 313 314 313 313 313 313 313 313 313 306 295 310 312 313 314 313 312 312 316 309 310 308 309 310 314 312 313 315 315 316
311 311 311 311 311 311 311 311 311 311 312 312 312 313 312 312 313 313 314 313 313 313 313 313 314 311 303 299 310 311 311 310 313 313 310 314 318 311 310 307 313 312 309 312 313 314 313
311 311 311 311 311 311 311 311 311 311 312 312 312 313 312 312 312 313 313 313 312 313 313 314 314 310 298 308 311 309 310 308 309 310 310 312 314 310 310 312 309 307 307 303 311 314 315
311 311 311 311 311 310 310 311 311 311 312 312 312 312 311 311 311 312 312 312 313 313 314 315 310 306 298 313 306 309 309 304 306 308 309 311 309 306 307 304 302 305 300 302 306 313 312
310 310 310 310 310 310 310 310 310 311 311 311 312 312 311 311 311 312 311 311 312 312 313 313 311 302 306 302 306 308 311 309 303 304 303 305 304 300 301 300 295 298 299 302 303 309 310
310 310 309 309 310 310 311 311 311 311 311 311 311 311 311 312 312 311 309 309 303 302 307 303 304 302 303 307 307 304 306 304 305 303 297 301 297 295 297 301 302 302 302 301 306 310 308
309 309 310 310 310 310 311 311 311 311 310 311 311 311 311 311 312 310 309 304 303 304 295 302 302 301 303 304 298 301 306 298 298 295 300 297 295 301 302 301 300 299 299 300 305 308 308
309 310 310 310 310 310 310 310 311 311 311 311 311 311 311 311 310 310 307 305 308 307 296 297 300 300 300 302 297 299 302 299 295 294 296 294 297 301 301 299 298 299 298 300 300 305 307
309 309 309 309 310 310 309 309 309 310 310 311 310 310 310 310 306 307 304 308 309 308 289 292 295 299 301 301 297 305 306 300 296 291 294 296 300 298 299 298 299 296 302 301 301 300 297
308 308 308 309 309 309 309 309 308 309 310 310 310 310 310 308 307 304 306 310 309 304 278 295 297 307 304 299 301 301 307 302 294 294 294 291 296 296 295 298 301 298 303 301 301 300 300
307 308 307 309 308 309 308 308 309 309 309 309 310 310 309 309 309 310 310 309 305 286 278 290 296 294 295 297 297 301 302 304 304 297 295 294 298 297 299 300 302 304 301 301 301 300 294
308 308 308 308 307 308 308 307 307 308 308 309 309 309 307 310 304 311 310 302 286 280 292 287 289 292 291 291 293 295 295 294 292 289 290 294 293 297 299 297 301 300 299 291 290 291 290
307 307 308 308 308 308 308 307 307 307 308 308 308 307 311 311 311 311 306 294 279 286 286 292 291 292 289 292 292 292 291 290 294 293 289 287 287 293 298 296 297 298 299 292 285 288 292
307 307 307 307 307 308 307 307 307 307 307 307 306 312 310 311 312 310 300 286 284 288 291 289 290 288 288 291 291 291 289 289 292 294 288 288 289 299 297 299 300 297 294 301 296 297 293
306 306 307 307 308 307 307 307 307 307 307 306 305 308 307 313 313 306 295 287 290 293 292 292 285 287 285 288 287 288 289 293 293 295 296 291 286 294 299 299 299 299 302 294 297 289 289
306 306 307 307 307 308 307 308 308 308 307 305 306 302 309 312 312 300 290 290 292 295 294 290 288 287 288 287 289 288 289 293 296 294 296 294 291 289 296 296 293 296 296 298 300 297 291
306 306 307 307 308 308 308 307 307 307 305 305 306 297 309 311 298 300 292 293 294 294 296 293 293 291 289 290 288 289 289 292 297 296 291 295 292 287 290 300 299 300 297 299 294 293 297
306 305 306 307 307 307 307 307 307 307 306 304 302 301 310 307 292 291 294 293 294 293 294 293 292 293 293 290 286 291 291 296 297 295 292 294 291 285 288 295 300 297 299 301 302 303 297
306 306 306 306 307 307 307 307 307 307 306 305 302 294 300 302 300 294 291 290 290 296 294 294 292 294 293 289 292 289 289 295 297 296 298 295 291 288 285 289 295 294 297 300 301 296 297
305 305 306 306 306 307 307 308 307 307 306 305 303 296 299 291 293 293 293 291 290 289 294 294 292 292 290 287 289 289 292 293 296 296 296 293 287 291 291 292 294 295 297 298 298 301 297
305 305 305 306 306 306 307 307 307 307 306 305 297 295 298 294 296 294 293 291 290 291 292 291 290 291 292 289 290 288 291 292 291 295 294 296 288 291 289 292 292 291 297 299 300 301 302
305 305 305 306 306 306 306 307 307 307 307 302 304 304 298 294 294 292 292 292 291 294 295 295 294 293 291 293 296 296 297 296 295 293 292 292 291 288 285 291 290 289 297 299 301 304 304
306 305 305 305 305 306 306 307 307 307 307 303 302 303 295 290 293 292 294 293 292 293 292 296 296 294 298 302 301 300 298 297 296 295 296 291 291 290 287 289 281 297 304 303 302 306 307
306 306 305 305 305 305 306 306 307 307 308 305 305 302 297 290 293 293 294 293 295 296 294 295 297 299 302 299 292 290 291 292 293 295 295 296 292 288 286 286 290 296 301 301 301 302 307
307 306 306 306 305 304 305 306 306 307 307 306 306 307 300 293 293 297 294 294 292 292 294 295 301 304 302 294 291 285 283 287 288 291 298 296 296 291 288 283 286 297 303 307 307 298 308
307 307 306 306 306 306 305 305 305 306 307 306 305 312 303 294 299 298 295 293 296 295 291 295 296 296 301 293 286 286 285 289 286 287 289 290 292 287 286 285 290 299 300 308 295 297 310
307 306 306 306 306 306 306 305 305 306 306 305 304 310 305 297 299 301 302 297 298 297 290 294 292 294 294 288 287 287 287 288 288 289 289 288 288 288 290 286 284 299 301 297 301 310 310
306 306 306 306 306 306 306 307 306 306 306 306 300 309 311 300 299 305 305 306 305 302 298 293 291 294 294 291 291 290 287 289 288 285 295 287 290 288 291 287 295 301 301 304 306 307 309

GFSGBSN_sfc_thetae_030.txt.gz
Theta_e
312 312 313 313 311 311 312 312 312 312 312 312 313 313 313 312 312 312 312 312 313 313 313 313 313 313 306 296 297 302 319 313 308 322 309 304 301 298 294 296 299 301 307 310 311 312 312
311 312 312 311 311 311 311 311 311 312 312 312 312 312 312 312 312 312 313 313 313 312 312 312 313 312 301 289 302 305 306 305 304 302 307 303 300 300 297 296 296 299 300 304 308 307 308
310 311 311 311 311 311 311 312 312 311 312 312 312 312 312 313 313 313 313 313 312 312 312 313 313 309 300 296 306 304 302 300 302 303 300 305 305 302 300 296 300 300 296 300 302 303 306
311 310 310 310 311 311 311 311 311 310 310 310 310 312 312 312 313 313 313 313 312 313 314 314 314 307 295 306 306 304 305 303 304 304 303 303 302 298 299 301 300 296 295 293 300 303 304
310 310 310 310 311 311 310 310 310 310 309 310 310 312 311 311 311 312 312 312 313 314 315 314 306 302 293 310 304 306 305 300 302 303 302 305 299 296 297 293 290 293 291 292 296 304 303
310 310 310 309 309 309 309 309 309 309 310 311 311 311 311 311 311 312 312 312 312 312 311 311 309 299 301 300 306 308 306 304 301 300 298 296 292 291 289 289 286 290 291 294 294 300 302
309 309 310 309 309 309 309 309 309 310 310 310 310 310 311 311 312 312 308 301 296 293 297 293 295 297 300 303 305 302 307 302 302 297 288 291 286 285 290 292 293 295 294 294 297 301 300
309 309 309 309 309 308 308 309 309 309 309 309 309 309 310 311 312 311 304 298 298 297 290 298 298 298 301 302 295 298 303 295 293 287 291 287 285 291 293 294 293 292 290 290 294 298 299
309 309 309 309 309 308 308 309 309 309 309 309 309 310 310 310 310 304 300 300 303 300 288 293 299 299 299 299 295 295 299 296 291 288 288 286 290 295 292 291 291 291 289 291 291 295 297
308 308 308 308 309 309 308 308 308 308 309 309 309 309 309 309 302 301 299 304 302 299 283 290 295 297 299 298 293 301 301 296 292 287 288 287 291 290 291 289 291 287 294 294 292 291 286
308 308 308 309 309 309 308 308 308 308 308 309 309 309 309 308 299 297 303 302 302 297 272 291 294 304 300 296 297 298 306 301 291 289 288 285 288 287 288 290 294 289 295 294 294 290 289
307 308 308 308 308 308 309 309 308 309 308 308 309 309 309 303 299 302 305 301 298 281 271 287 293 291 292 294 294 298 298 301 300 294 291 289 293 291 289 291 292 293 293 292 292 288 282
306 307 307 307 308 308 309 308 308 309 308 308 309 308 306 305 297 303 301 295 280 274 290 286 287 289 289 289 291 293 291 290 288 285 284 290 292 295 297 289 291 289 283 279 278 279 281
306 306 307 308 308 308 308 308 308 308 308 308 307 306 304 305 302 303 297 286 272 284 286 291 290 289 286 289 289 291 289 287 292 291 286 283 282 291 296 292 285 285 284 279 275 277 282
306 306 306 306 308 308 308 308 308 307 307 307 306 298 300 303 304 300 290 278 280 286 290 288 288 284 284 288 289 288 288 287 290 291 283 283 284 294 294 294 291 287 282 287 282 286 282
306 306 306 307 307 307 307 308 308 308 307 306 297 295 298 305 303 297 286 283 286 292 292 291 282 286 282 285 285 285 287 292 290 293 292 287 281 290 292 293 292 290 292 281 281 277 276
306 306 306 307 307 307 307 307 308 308 307 305 295 294 301 304 302 291 279 284 290 294 295 290 287 285 285 285 286 285 287 291 293 292 292 288 284 285 290 287 285 285 285 285 284 283 280
306 305 305 306 307 307 307 307 307 307 306 299 293 289 301 302 287 281 281 290 294 292 295 292 291 288 287 287 286 286 286 289 295 295 289 291 285 281 284 290 294 290 287 286 280 279 284
307 306 306 306 307 307 307 306 307 307 306 299 290 291 302 299 281 281 287 290 293 291 292 291 289 290 290 287 283 288 289 294 295 292 290 290 283 277 280 286 291 289 291 292 288 286 283
308 307 307 307 307 307 306 307 307 306 306 301 291 287 290 291 289 284 285 288 289 294 293 293 290 291 288 286 287 286 287 292 295 294 298 295 285 282 275 282 288 287 290 291 288 282 285
307 307 307 308 308 308 307 307 307 306 306 298 292 287 289 282 286 287 288 288 289 289 292 292 289 289 287 285 285 285 289 290 293 296 295 290 284 286 286 288 289 289 289 290 288 288 285
307 307 307 307 307 307 307 306 307 306 306 296 288 289 291 289 289 286 287 287 288 290 290 289 287 290 290 287 288 286 288 288 287 289 290 291 284 288 284 289 289 288 290 291 290 290 290
307 307 308 308 308 307 307 307 307 306 303 291 293 294 294 291 287 285 284 288 290 292 292 293 291 290 289 291 295 294 293 292 291 287 286 288 287 285 280 288 288 283 289 290 293 293 293
308 308 308 308 308 308 307 307 307 306 305 297 294 296 292 285 288 287 290 291 291 291 289 292 292 289 293 298 296 295 292 291 291 291 292 287 284 285 282 285 277 291 297 298 298 295 301
308 308 307 307 307 307 308 308 308 307 306 296 294 296 294 287 290 290 291 290 291 293 290 292 293 295 296 292 287 286 286 287 290 292 291 291 287 282 281 283 288 292 293 294 294 295 304
307 308 307 307 306 307 308 308 308 308 307 297 295 294 295 291 287 293 289 290 288 290 290 293 295 296 293 288 287 281 280 284 285 288 294 290 290 285 284 280 280 288 293 297 298 293 304
308 307 307 307 306 306 307 307 308 308 308 302 297 295 295 290 293 293 291 289 294 293 289 292 292 290 291 283 278 282 283 289 281 284 286 287 287 283 283 283 286 291 293 298 291 294 303
307 307 307 306 305 305 306 307 307 307 308 304 297 297 294 289 291 295 296 292 292 292 288 293 289 287 287 285 282 282 284 285 286 288 287 285 283 285 287 283 281 292 293 293 296 302 304
306 306 306 305 304 305 304 306 307 307 308 307 297 298 298 294 294 299 300 301 300 298 294 294 291 290 292 286 283 287 284 287 286 281 292 285 288 285 287 286 293 293 296 302 302 301 302

GFSGBSN_sfc_thetae_033.txt.gz
Theta_e
311 312 311 311 310 310 310 311 310 310 311 311 311 312 312 312 312 312 312 312 313 313 313 312 312 312 305 294 293 301 314 310 305 305 315 306 300 299 294 295 300 301 307 309 312 311 313
310 311 311 311 310 310 310 310 310 310 310 310 311 311 311 312 312 312 312 313 312 312 311 312 311 310 301 291 302 303 303 302 301 300 300 305 299 300 297 295 297 298 300 302 305 306 306
311 311 311 310 310 310 310 310 310 310 311 311 311 312 312 312 312 313 313 312 312 312 313 312 312 308 300 296 305 305 304 301 300 301 298 300 304 300 297 294 298 297 294 298 299 299 299
310 310 310 309 310 309 309 309 309 309 309 310 311 311 311 311 311 312 313 313 313 313 314 313 313 306 296 306 305 303 303 302 303 303 301 302 301 296 297 298 297 294 292 290 298 300 301
309 309 310 309 309 309 308 309 309 309 309 309 310 311 310 310 310 311 313 312 314 315 314 314 306 301 294 309 304 307 304 301 301 301 301 304 297 294 295 291 289 291 289 291 294 301 301
310 310 309 309 309 309 308 308 308 309 309 309 309 310 310 310 310 311 312 312 313 311 311 311 308 295 297 296 302 304 305 303 299 298 296 295 291 289 287 288 284 287 289 291 292 297 299
309 309 309 309 309 309 308 308 308 309 309 309 309 309 310 310 310 311 307 300 295 293 294 292 294 294 297 302 304 301 303 300 298 296 287 290 284 284 289 291 292 290 290 290 294 298 297
309 309 309 309 309 308 308 308 309 308 309 309 309 309 309 310 311 310 301 296 297 296 289 297 297 297 300 301 295 299 302 294 292 286 289 286 284 290 291 291 290 290 287 287 293 296 294
308 308 308 308 308 308 308 308 308 308 308 309 308 309 309 310 310 302 298 299 302 298 287 292 296 297 298 299 295 295 298 294 290 286 286 283 287 293 290 288 288 288 287 288 289 294 295
307 308 308 308 308 308 308 308 308 308 308 308 309 309 309 309 301 298 298 303 301 297 281 289 294 297 297 298 293 301 301 295 290 286 287 285 289 288 287 287 288 283 291 292 291 288 284
307 307 307 308 308 308 308 308 308 308 308 308 309 309 309 308 298 297 301 301 302 294 270 290 292 300 297 294 294 297 304 299 291 290 287 284 286 285 285 287 290 287 291 290 291 288 285
306 307 307 307 307 307 308 308 308 308 308 308 309 309 308 301 297 301 302 300 296 280 271 287 292 291 290 292 293 297 298 301 299 293 292 288 291 289 287 290 290 291 288 288 288 285 278
306 306 306 306 306 306 308 308 308 308 308 308 309 308 306 304 295 300 299 292 279 273 289 286 287 290 288 288 290 292 290 290 287 283 284 289 287 291 291 286 290 287 281 276 275 276 278
307 307 306 307 306 306 307 307 307 307 308 308 307 306 303 304 301 300 294 285 271 283 285 291 290 289 285 288 288 289 288 286 292 290 285 282 280 289 295 290 286 284 282 276 274 276 279
306 306 306 306 306 307 307 307 307 307 307 306 305 296 296 301 303 298 288 277 280 285 289 288 288 284 283 287 287 286 285 287 290 291 284 283 283 293 294 294 290 285 280 286 279 281 278
307 306 306 306 307 307 307 307 307 307 307 306 294 294 297 302 301 295 285 283 285 291 292 290 283 286 281 283 284 283 285 291 290 293 292 287 280 290 292 292 292 287 290 279 278 275 275
308 308 307 308 307 307 307 307 307 307 306 305 294 292 300 302 300 289 279 283 288 294 293 289 286 284 284 284 285 284 286 290 293 291 293 286 283 285 288 286 282 284 283 284 282 280 276
307 308 308 308 308 308 307 307 307 307 305 301 290 287 300 299 287 278 280 288 293 292 294 292 291 288 285 286 284 285 285 289 294 293 288 289 284 280 283 288 291 288 286 285 279 279 281
307 307 307 308 308 307 308 307 307 306 305 300 291 288 299 296 278 279 285 289 291 291 291 290 289 290 289 285 282 286 288 294 293 292 288 288 281 277 278 284 289 286 289 287 286 283 281
307 307 308 308 308 308 307 307 306 306 305 300 292 285 288 289 287 283 283 285 288 293 292 292 290 290 287 285 288 285 286 291 293 293 297 293 286 281 277 280 286 283 287 290 287 280 283
307 307 308 308 309 309 308 307 307 306 305 296 290 285 287 281 284 286 284 286 286 287 293 293 288 289 288 284 286 285 287 289 292 294 292 289 282 284 285 287 288 287 286 287 287 287 283
307 308 308 308 308 308 308 308 308 306 304 294 286 286 288 286 288 288 286 285 287 288 290 288 288 289 289 286 287 285 288 288 287 289 287 288 281 286 284 288 287 285 288 289 289 290 289
308 308 308 308 308 308 308 308 308 307 301 289 290 291 289 286 285 285 284 288 288 290 291 293 291 290 287 289 292 292 292 292 291 289 284 285 284 281 278 285 286 282 287 289 290 291 290
308 308 308 308 308 307 308 308 308 308 303 298 293 291 289 281 285 284 288 289 289 289 288 292 292 289 293 297 294 293 291 290 290 290 290 283 283 283 280 283 274 287 296 295 291 294 295
308 308 308 308 307 307 306 307 308 308 307 299 297 294 290 281 286 286 289 288 289 291 290 292 292 296 295 291 286 286 284 286 288 289 289 289 285 282 279 280 285 290 292 291 290 292 300
308 308 308 308 307 307 306 307 308 308 308 301 298 297 292 288 282 291 287 289 288 288 290 291 294 294 291 287 286 281 278 285 284 287 294 290 289 284 283 278 277 289 292 295 295 287 299
307 307 307 307 306 306 305 305 306 307 308 304 299 298 294 288 288 288 287 286 292 292 289 291 290 288 289 285 278 280 281 288 280 282 285 286 285 282 281 280 286 291 292 293 287 290 300
306 305 305 305 305 305 305 305 305 306 307 305 299 299 296 290 291 291 291 289 292 291 288 290 289 287 286 283 282 280 282 285 285 288 286 284 282 284 284 282 280 292 290 291 296 300 303
305 304 304 304 305 304 305 306 306 306 307 307 299 300 301 294 292 295 295 296 297 296 293 294 290 290 287 287 282 287 284 286 285 280 292 284 287 284 285 285 289 290 290 299 303 302 303

GFSGBSN_sfc_thetae_036.txt.gz
Theta_e
312 312 312 312 311 310 310 310 310 310 310 310 311 311 312 312 312 312 312 312 313 313 312 312 312 311 302 293 292 302 313 309 302 301 303 306 300 298 292 296 302 306 307 310 313 313 311
311 311 310 310 310 310 309 309 309 309 309 310 310 310 311 311 311 311 312 312 313 312 312 312 312 311 298 288 302 304 303 305 301 296 297 304 299 300 297 294 298 297 300 305 307 307 307
310 310 310 309 309 309 309 309 309 309 309 311 311 310 310 310 311 312 312 313 313 313 313 313 312 308 298 293 305 305 304 301 300 301 295 298 306 301 296 293 296 296 293 295 297 299 302
310 310 310 310 310 308 308 308 309 309 309 310 310 310 310 310 311 311 312 313 313 315 315 314 312 303 292 305 305 304 303 301 303 302 300 300 299 294 295 297 296 292 291 289 297 297 299
310 310 310 309 309 309 309 309 309 309 310 309 310 310 310 310 311 311 312 312 313 315 315 314 303 299 292 307 303 306 304 300 300 301 300 303 296 292 293 290 287 289 288 288 292 299 299
310 309 309 309 309 309 309 309 309 309 309 309 309 310 310 310 311 311 311 312 312 312 312 311 307 294 296 295 301 302 304 302 299 297 295 293 290 287 286 287 283 285 286 290 290 295 297
309 309 309 309 309 308 309 309 309 309 309 309 309 309 310 310 310 311 306 298 294 292 294 291 293 294 295 300 303 300 302 299 297 294 286 289 284 282 287 290 291 289 287 287 292 296 295
308 308 308 309 309 309 309 309 309 308 309 309 309 309 309 310 310 310 299 295 296 296 289 297 295 295 299 299 294 298 301 292 291 286 287 284 281 288 290 290 289 288 285 285 290 294 292
307 308 308 308 308 308 308 308 308 308 308 309 309 308 308 309 309 301 296 298 300 296 286 291 295 295 297 297 294 294 297 293 289 285 285 282 285 290 289 287 286 286 285 286 287 292 293
307 307 307 307 307 307 308 308 308 308 308 308 309 308 308 308 300 297 296 301 300 297 280 286 292 294 296 296 291 299 299 294 289 285 286 283 288 287 285 285 287 282 289 290 290 287 282
307 307 307 307 307 307 307 307 307 308 307 308 308 308 307 307 296 296 299 300 298 293 269 289 291 299 297 290 293 295 303 297 288 288 287 285 284 284 284 285 288 285 290 288 289 285 283
307 307 307 307 307 307 308 307 307 307 308 308 308 308 307 301 297 299 301 298 295 280 270 286 291 290 290 292 292 294 295 300 298 292 292 290 292 288 286 289 289 291 288 286 285 283 277
307 307 307 307 307 307 308 308 307 307 308 308 308 308 304 303 294 298 298 291 279 273 287 285 286 289 288 287 288 290 289 287 286 283 284 289 287 291 290 284 287 285 280 275 274 274 276
308 307 307 307 307 308 308 307 307 307 307 307 307 304 303 303 298 299 292 283 271 283 284 290 289 288 284 286 286 288 286 284 291 289 285 283 279 286 292 286 282 282 281 275 274 274 276
309 309 309 309 308 309 308 307 307 307 307 306 304 296 296 299 302 296 288 276 279 284 289 287 287 283 282 285 286 285 284 285 290 291 283 283 282 292 293 292 289 284 279 285 278 279 276
308 308 308 308 308 308 309 308 307 307 307 306 293 293 296 301 299 293 285 283 283 290 291 289 282 285 280 282 282 282 283 289 289 292 292 287 280 289 292 294 292 286 287 278 276 273 273
308 308 308 308 308 308 308 309 308 307 306 305 292 292 298 300 298 289 278 281 287 293 293 289 286 284 283 283 283 282 284 289 292 291 292 288 282 285 288 285 283 284 281 282 279 278 275
308 308 308 308 307 307 307 307 308 307 305 300 289 287 299 297 285 276 278 286 292 291 293 291 290 287 285 285 283 283 284 288 293 292 287 289 284 280 283 288 290 286 284 284 279 278 279
308 308 308 308 308 308 307 307 306 307 305 300 291 290 298 294 277 276 284 287 290 290 290 290 289 289 288 285 282 285 287 292 291 291 287 288 282 277 279 284 288 284 286 285 283 282 278
308 308 308 309 309 308 308 308 307 307 305 300 293 284 288 287 285 282 283 285 286 292 291 291 289 290 288 285 287 285 286 291 292 292 296 292 285 281 275 279 284 282 285 287 286 279 280
307 309 309 309 309 309 308 308 308 307 305 294 288 284 288 280 281 282 287 287 285 286 292 291 288 289 288 285 285 285 288 289 292 294 290 287 282 283 284 286 286 285 285 286 285 285 282
308 309 309 310 309 308 308 308 308 307 304 293 282 284 287 283 284 283 284 285 286 287 288 287 287 289 289 286 286 284 287 288 287 290 288 291 283 283 282 286 286 284 286 286 286 287 287
307 308 309 309 309 308 308 307 308 308 301 293 292 288 288 285 282 280 280 285 286 289 290 292 290 289 287 289 293 292 292 291 290 289 288 287 285 279 277 284 284 279 284 286 287 289 288
308 309 309 309 309 308 308 307 307 308 304 298 295 293 287 281 282 282 285 286 285 288 287 291 291 289 292 295 293 293 289 289 290 289 291 287 285 283 277 280 272 284 294 294 289 290 291
308 309 308 308 308 307 307 307 307 308 307 299 298 294 290 283 285 286 287 287 287 288 289 291 292 293 293 290 286 283 283 286 289 290 289 289 286 280 276 277 283 287 291 290 289 288 295
308 307 307 307 306 306 306 305 305 306 307 303 299 299 293 286 284 288 285 284 282 285 289 291 293 294 290 284 281 277 277 284 283 286 293 289 289 283 281 276 274 287 287 294 294 286 299
307 306 305 304 305 305 305 305 306 306 306 304 300 299 295 287 290 287 287 286 288 288 285 290 292 288 287 282 280 278 278 287 281 282 284 285 284 280 281 279 283 291 292 293 286 286 299
305 304 303 303 304 304 304 305 305 307 306 304 301 300 295 290 291 293 293 288 287 287 286 290 289 286 284 281 281 278 281 284 284 287 285 284 282 282 283 280 279 290 290 289 294 295 301
303 303 302 302 303 303 303 304 304 306 307 306 298 301 301 293 292 297 297 298 296 294 290 292 292 291 285 286 281 282 284 284 284 281 291 283 286 283 284 284 291 290 290 293 295 297 302